Retour au catalogue

FENGYUN 1C DEB

ActifSSO
NORAD 30266·DEBRIS·🇨🇳 China

Lancé May 10, 1999 depuis Taiyuan Satellite Launch Center

Loading…

Prochains Passages (prochaines 24 heures)

TLE

FraisSource: Space-Track

Époque: Sep 14, 2026, 04:02 UTC

1 30266U 99025YB  26257.16828839  .00001409  00000-0  70917-3 0  9990
2 30266  99.0257 330.1149 0081283   5.7121  23.2840 14.16371896  6887

Suivez FENGYUN 1C DEB en temps réel avec AllMySat

Download on the App Store